User: anonymous   Login
Location: Key Biscayne
(25.6930°N, 80.1630°W)
Time: 07:53:37
(UTC-04:00)
Language:

CZ-2D R/B - Orbit

View from above orbital plane
View from above orbital plane
View from above satellite
View from above satellite

Ground track
Ground track

The orbit data is extracted from the following two-line orbital elements,

1 28738U 05024B   15117.75958666  .00003044  00000-0  19626-3 0  9994
2 28738 097.5926 154.9923 0013547 160.3372 199.8382 15.08994478537867
Epoch (UTC): 27 April 2015 18:13:48
Eccentricity: 0.0013547
inclination: 97.5926°
perigee height: 530 km
apogee height: 548 km
right ascension of ascending node: 154.9923°
argument of perigee: 160.3372°
revolutions per day: 15.08994478
mean anomaly at epoch: 199.8382°
orbit number at epoch: 53786

The dashed part of the orbit path shows where the satellite is in the earth's shadow,  

DLR